Regional Weather Roundup
Issued by NWS

Home | Current Version | Previous Version | Text Only | Print | Product List | Glossary On
Versions: 1 2 3 4 5 6 7 8 9 10 11 12 13 14 15 16 17 18 19 20 21 22 23 24 25 26 27 28 29 30 31 32 33 34 35 36 37 38 39 40 41 42 43 44 45 46 47 48 49 50
000
ASUS43 KMKX 250610
RWRWI

WISCONSIN REGIONAL WEATHER ROUNDUP
NATIONAL WEATHER SERVICE MILWAUKEE/SULLIVAN WI
100 AM CDT WED APR 25 2018

NOTE: "FAIR" INDICATES FEW OR NO CLOUDS BELOW 12,000 FEET WITH NO
SIGNIFICANT WEATHER AND/OR OBSTRUCTIONS TO VISIBILITY.

WIZ001-002-006>008-014>016-023>028-250700-
NORTHWEST WISCONSIN

CITY           SKY/WX    TMP DP  RH WIND       PRES   REMARKS
SUPERIOR ARPT  FAIR      34  23  63 N5        30.30S WCI  30
6HR MIN TEMP:  34; 6HR MAX TEMP:  54;

ASHLAND        FAIR      32  25  75 NE6       30.28R WCI  26
6HR MIN TEMP:  31; 6HR MAX TEMP:  49;

HAYWARD        FAIR      37  24  59 N9        30.25R WCI  30
6HR MIN TEMP:  36; 6HR MAX TEMP:  53;

SIREN          FAIR      38  24  56 NE5       30.27R WCI  35
6HR MIN TEMP:  38; 6HR MAX TEMP:  55;

CUMBERLAND     FAIR      37  25  60 N9        30.24R WCI  31
RICE LAKE      FAIR      40  28  62 N8        30.24R WCI  34
6HR MIN TEMP:  35; 6HR MAX TEMP:  51;

CHETEK         FAIR      34  31  88 N3        30.23R
6HR MIN TEMP:  32; 6HR MAX TEMP:  49;

LADYSMITH      FAIR      37  29  72 N9        30.23R WCI  31
6HR MIN TEMP:  33; 6HR MAX TEMP:  47;

EAU CLAIRE     FAIR      36  34  92 CALM      30.20R
6HR MIN TEMP:  33; 6HR MAX TEMP:  54;

MENOMONIE      FAIR      37  33  84 W5        30.21S WCI  34
6HR MIN TEMP:  37; 6HR MAX TEMP:  55;

NEW RICHMOND   FAIR      40  26  58 NE12G17   30.24R WCI  33
6HR MIN TEMP:  37; 6HR MAX TEMP:  54;

OSCEOLA        FAIR      41  27  58 N6        30.28R
6HR MIN TEMP:  41; 6HR MAX TEMP:  56;

$$

WIZ003>005-009-010-017-018-250700-
NORTH CENTRAL WISCONSIN

CITY           SKY/WX    TMP DP  RH WIND       PRES   REMARKS
MANITOWISH WTR FAIR      32  32 100 NE6       30.20S WCI  26
6HR MIN TEMP:  29; 6HR MAX TEMP:  40;

ARBOR VITAE    FAIR      32  31  96 N6        30.19R WCI  26
6HR MIN TEMP:  32; 6HR MAX TEMP:  42;

WOODRUFF       FAIR      32  31  96 N6        30.19R WCI  26
6HR MIN TEMP:  32; 6HR MAX TEMP:  42;

RHINELANDER    FAIR      35  33  92 N5        30.18R WCI  31
6HR MIN TEMP:  30; 6HR MAX TEMP:  44; 6HR PCP:  0.04;

EAGLE RIVER    MOCLDY    33  33 100 N6        30.18R WCI  27
6HR MIN TEMP:  29; 6HR MAX TEMP:  40;

LAND O LAKES   FAIR      34  33  96 N6        30.21R WCI  29
6HR MIN TEMP:  29; 6HR MAX TEMP:  39;

PHILLIPS       FAIR      34  30  87 N7        30.20R WCI  27
6HR MIN TEMP:  28; 6HR MAX TEMP:  40;

TOMAHAWK       FAIR      30  29  97 CALM      30.19R FOG
6HR MIN TEMP:  28; 6HR MAX TEMP:  43;

MEDFORD        FAIR      34  33  96 N5        30.17S WCI  30
6HR MIN TEMP:  33; 6HR MAX TEMP:  47;

MERRILL        FOG       32  32 100 CALM      30.18S VSB 1/4
6HR MIN TEMP:  32; 6HR MAX TEMP:  50; 6HR PCP:  0.01;

$$

WIZ029-030-035-036-043>047-250700-
CENTRAL WISCONSIN

CITY           SKY/WX    TMP DP  RH WIND       PRES   REMARKS
WAUSAU         FAIR      38  37  97 N6        30.15R WCI  33
6HR MIN TEMP:  38; 6HR MAX TEMP:  56; 6HR PCP:  0.02;

MOSINEE        FAIR      37  36  93 N8        30.17S WCI  31
MARSHFIELD     FAIR      40  35  83 NE7       30.15S
6HR MIN TEMP:  40; 6HR MAX TEMP:  54;

STEVENS POINT  CLOUDY    40  39  93 CALM      30.16S
6HR MIN TEMP:  40; 6HR MAX TEMP:  60;

WAUPACA        FAIR      46  36  67 CALM      30.16R
6HR MIN TEMP:  46; 6HR MAX TEMP:  64;

WAUTOMA        CLOUDY    46  32  58 N6        30.15S
6HR MIN TEMP:  46; 6HR MAX TEMP:  65;

WISC RAPIDS    CLOUDY    45  37  73 N7        30.16S
6HR MIN TEMP:  45; 6HR MAX TEMP:  63; 6HR PCP: TRACE;

CAMP DOUGLAS   MOCLDY    46  37  69 N6        30.16R
6HR MIN TEMP:  46; 6HR MAX TEMP:  64;

$$

WIZ011>013-019>022-031-037>040-048>050-250700-
NORTHEAST WISCONSIN

CITY           SKY/WX    TMP DP  RH WIND       PRES   REMARKS
ANTIGO         FAIR      33  33 100 N3        30.16S
6HR MIN TEMP:  33; 6HR MAX TEMP:  49; 6HR PCP:  0.04;

SHAWANO        CLOUDY    42  38  84 N7        30.15S
6HR MIN TEMP:  42; 6HR MAX TEMP:  53;

OCONTO         CLOUDY    41  38  89 N6        30.15S
6HR MIN TEMP:  41; 6HR MAX TEMP:  52;

STURGEON BAY   LGT RAIN  39  36  89 N14       30.14F WCI  31
6HR MIN TEMP:  39; 6HR MAX TEMP:  52; 6HR PCP:  0.01;

GREEN BAY      CLOUDY    43  35  73 N12       30.14S
6HR MIN TEMP:  43; 6HR MAX TEMP:  51;

MANITOWOC      CLOUDY    44  34  67 N10G18    30.13S
6HR MIN TEMP:  44; 6HR MAX TEMP:  52; 6HR PCP: TRACE;

APPLETON       CLOUDY    45  30  57 N9        30.12S
CLINTONVILLE   CLOUDY    44  36  73 N6        30.15R
6HR MIN TEMP:  44; 6HR MAX TEMP:  56;

OSHKOSH        CLOUDY    46  31  55 NE12      30.13S
6HR MIN TEMP:  45; 6HR MAX TEMP:  60;

$$

WIZ032>034-041-042-053>061-250700-
SOUTHWEST WISCONSIN

CITY           SKY/WX    TMP DP  RH WIND       PRES   REMARKS
LA CROSSE      FAIR      46  34  62 N6        30.17F
6HR MIN TEMP:  46; 6HR MAX TEMP:  69;

SPARTA         FAIR      43  36  76 CALM      30.18S
6HR MIN TEMP:  43; 6HR MAX TEMP:  65;

VIROQUA        FAIR      44  37  76 N10       30.15S
6HR MIN TEMP:  44; 6HR MAX TEMP:  64;

BOSCOBEL       FAIR      51  34  52 VRB3      30.14S
6HR MIN TEMP:  51; 6HR MAX TEMP:  71;

PRAIRIE DU CHI FAIR      51  33  49 N12G18    30.14R
6HR MIN TEMP:  51; 6HR MAX TEMP:  69;

PLATTEVILLE    CLOUDY    51  35  52 N17G24    30.10R
6HR MIN TEMP:  51; 6HR MAX TEMP:  69;

$$

WIZ056-057-062-063-064-067-068-250700-
SOUTH CENTRAL WISCONSIN

CITY           SKY/WX    TMP DP  RH WIND       PRES   REMARKS
REEDSBURG      CLOUDY    48  33  57 N8        30.14R
6HR MIN TEMP:  48; 6HR MAX TEMP:  66;

BARABOO/DELLS  MOCLDY    47  32  55 N7        30.14R
6HR MIN TEMP:  47; 6HR MAX TEMP:  66;

LONE ROCK      CLOUDY    52  34  50 N12       30.13R
6HR MIN TEMP:  52; 6HR MAX TEMP:  69;

MINERAL POINT  MOCLDY    52  32  46 N12G21    30.10R
MADISON        CLOUDY    50  33  52 NE12      30.11S
6HR MIN TEMP:  50; 6HR MAX TEMP:  64;

MIDDLETON      CLOUDY    51  33  49 NE8       30.12S
6HR MIN TEMP:  51; 6HR MAX TEMP:  67;

WATERTOWN      CLOUDY    47  31  54 NE9G17    30.11R
6HR MIN TEMP:  47; 6HR MAX TEMP:  64;

MONROE         CLOUDY    52  43  71 NE13G20   30.08R
JANESVILLE     MOCLDY    50  32  50 NE9       30.09S
$$

WIZ051-052-058>065-066-070>072-250700-
SOUTHEAST WISCONSIN

CITY           SKY/WX    TMP DP  RH WIND       PRES   REMARKS
MILWAUKEE      CLOUDY    44  32  62 N17G35    30.10R
6HR MIN TEMP:  43; 6HR MAX TEMP:  49;

WAUKESHA       CLOUDY    43  32  65 NE15G23   30.11R
MILWAUKEE/TIMM CLOUDY    45  30  57 NE24G36   30.11R
RACINE         CLOUDY    42  33  70 N21G32    30.09R
6HR MIN TEMP:  41; 6HR MAX TEMP:  47;

BURLINGTON     MOCLDY    46  28  49 NE12G23   30.09S
6HR MIN TEMP:  46; 6HR MAX TEMP:  60;

KENOSHA        CLOUDY    45  31  58 N18G29    30.08R
6HR MIN TEMP:  44; 6HR MAX TEMP:  54;

FOND DU LAC    CLOUDY    46  31  55 NE15      30.13S
6HR MIN TEMP:  46; 6HR MAX TEMP:  62;

SHEBOYGAN      CLOUDY    44  34  67 NE15G21   30.12R
6HR MIN TEMP:  44; 6HR MAX TEMP:  54;

WEST BEND      CLOUDY    45  30  57 NE10G20   30.11S
JUNEAU         CLOUDY    46  32  57 NE7       30.12S
6HR MIN TEMP:  46; 6HR MAX TEMP:  63;

$$

LSZ147-162-250700-
LAKE SUPERIOR

STATION/POSITION TIME  TEMP    WIND        PRES    WAVE
                       AIR SEA DIR/SP/G            HT/PER
                 (UTC) (F)     (DEG/KT/KT) (MB)    (FT/S)
DEVILS ISLAND    0600   37      20/  9/  9 1026.3S
SAXON HARBOR     0540   35     340/  4/  5 1024.4S
$$

LMZ867-665-643>646-250700-
LAKE MICHIGAN

STATION/POSITION TIME  TEMP    WIND        PRES    W



USA.gov is the U.S. government's official web portal to all federal, state and local government web resources and services.